[[{"header":{"parameterUnit":"m.s-1","parameterCategory":2,"la1":30.2991,"la2":30.254,"lo1":-89.0895,"lo2":-89.0444,"dy":0.0017,"dx":0.0017,"nx":28,"ny":28,"refTime":"2024-08-09T15:00:00:Z","depth":"0","parameterNumber":2,"parameterNumberName":"U-component_of_CURRENTS"},"data":[0,0,0,0,0,0,0,0,0,0,0,0,0,0,0,0,0,0,0,0,0,0,0,0,0,0,0,0,0,0,0,0,0,0,0,0,0,0,0,0,0,0,0,0,0,0,0,0,0,0,0,0,0,0,0,0,0,0,0.0978,0.0978,0,0.0992,0.0992,0.0992,0.1004,0.1004,0.1004,0.1004,0.1015,0.1015,0.1015,0,0,0,0,0,0,0,0,0,0,0,0,0,0.0956,0.0957,0.0978,0.0978,0.0978,0.0992,0.0992,0.0993,0.1004,0.1004,0.1004,0.1004,0.1015,0.1015,0.1015,0,0,0,0,0,0,0,0,0,0,0,0,0,0.0969,0.0957,0.0978,0.0984,0.0985,0.0992,0.0992,0.0993,0.1004,0.1004,0.1004,0.1004,0.1014,0.1015,0.1015,0.1018,0,0,0.1017,0.1017,0,0,0,0,0,0,0,0,0.0968,0.097,0.0983,0.0984,0.0985,0.0995,0.0988,0.1001,0.1004,0.0998,0.1004,0.1004,0.1007,0.1008,0.1013,0.1019,0.1019,0.1017,0.1017,0.1017,0.1017,0,0,0,0,0,0,0,0.0967,0.0969,0.0985,0.0983,0.0984,0.0985,0.0987,0.0991,0.1003,0.0999,0.0999,0.0999,0.1007,0.1012,0.1013,0.1019,0.1017,0.1017,0.1017,0.1017,0.1095,0.1097,0,0,0,0,0,0,0.0963,0.0969,0.0984,0.0985,0.0975,0.0985,0.0987,0.0993,0.1003,0.1005,0.0999,0.0999,0.1011,0.1012,0.1013,0.1121,0.1017,0.1018,0.1018,0.1094,0.1096,0.1098,0,0,0,0,0,0,0.0963,0.0965,0.0984,0.0976,0.0978,0.0985,0.0991,0.0993,0.0997,0.1003,0.1005,0.1,0.1011,0.1013,0.103,0.1118,0.1018,0.1018,0.1092,0.1094,0.1097,0.127,0,0,0,0,0,0,0.0962,0.0965,0.0976,0.0976,0.0978,0.101,0.0991,0.0993,0.0996,0.0997,0.1005,0.1006,0.1012,0.103,0.1031,0.1116,0.1018,0.1089,0.1093,0.1096,0.1262,0.1278,0.1292,0,0,0,0,0,0.0962,0.1002,0.0977,0.0979,0.0991,0.1011,0.1014,0.1019,0.0996,0.1018,0.1014,0.1006,0.1053,0.1031,0.1032,0.112,0.1088,0.1092,0.1096,0.1255,0.1275,0.1292,0,0,0,0,0,0,0.1038,0.1006,0.0979,0.1016,0.1012,0.1013,0.1047,0.1017,0.1029,0.1037,0.1017,0.102,0.1074,0.1052,0.1028,0.1147,0.1074,0.1078,0.1195,0.1213,0.1228,0.1287,0.1019,0,0,0,0,0,0.1045,0.1053,0.1024,0.1062,0.106,0.104,0.1048,0.1043,0.1047,0.1052,0.105,0.1059,0.1091,0.1112,0.1126,0.118,0.1187,0.1237,0.1252,0.1265,0.1311,0.1381,0.1408,0.1111,0.1111,0.1111,0,0,0.11,0.1075,0.109,0.1075,0.1078,0.1111,0.1048,0.1079,0.1121,0.1052,0.1117,0.1104,0.1109,0.1187,0.1211,0.1184,0.1349,0.127,0.1283,0.1322,0.1388,0.1418,0.1444,0.1114,0.1113,0.1113,0,0,0.1214,0.1177,0.1218,0.1205,0.1194,0.1181,0.1182,0.1173,0.1187,0.1221,0.1201,0.1245,0.1257,0.1317,0.1338,0.1438,0.1417,0.1421,0.1569,0.1636,0.1663,0.1686,0.1724,0.175,0.1443,0.1444,0.1444,0,0.1289,0.1305,0.1243,0.1271,0.128,0.1212,0.1268,0.1279,0.128,0.1308,0.1269,0.1339,0.1346,0.1471,0.1523,0.1486,0.149,0.1506,0.1662,0.1685,0.1706,0.174,0.1766,0.1453,0.1452,0.1451,0.145,0,0.142,0.1423,0.1456,0.1454,0.146,0.1499,0.148,0.1502,0.1485,0.149,0.1573,0.158,0.1625,0.1644,0.1626,0.1783,0.1725,0.1665,0.1628,0.1748,0.1773,0.1798,0.1465,0.1462,0.1459,0.1457,0,0,0.1604,0.1559,0.1569,0.1555,0.1547,0.1559,0.1643,0.1686,0.1722,0.1752,0.1825,0.1921,0.1891,0.1914,0.1894,0.1979,0.2138,0.1902,0.1901,0.1963,0.2267,0.2174,0.219,0.2094,0.2099,0.2103,0.2223,0,0.1726,0.178,0.1743,0.1802,0.1808,0.1774,0.1836,0.1865,0.1876,0.1923,0.1975,0.2018,0.2,0.2008,0.2109,0.2097,0.2209,0.211,0.2123,0.2124,0.2047,0.2219,0.2116,0.221,0.2246,0.225,0.2253,0,0.184,0.1843,0.1909,0.1888,0.1899,0.1931,0.1974,0.2022,0.2084,0.2095,0.2174,0.2159,0.2295,0.2232,0.2383,0.2306,0.2337,0.2345,0.2347,0.2228,0.2078,0.2095,0.2252,0.2113,0.2289,0.2286,0.2284,0,0.1898,0.1946,0.1982,0.1979,0.1973,0.2008,0.2027,0.2074,0.2089,0.2187,0.2192,0.2331,0.2346,0.2452,0.2461,0.2432,0.2585,0.253,0.2501,0.2491,0.2396,0.2369,0.2446,0.2701,0.2701,0.2701,0.27,0,0.1966,0.1985,0.1995,0.1988,0.2026,0.2031,0.2066,0.2109,0.2153,0.2166,0.2257,0.2281,0.24,0.2462,0.2518,0.257,0.2635,0.259,0.2548,0.2446,0.2424,0.2285,0.2256,0.2705,0.2704,0.2703,0.2703,0,0.1937,0.1972,0.1975,0.2003,0.2012,0.202,0.2022,0.2038,0.21,0.2121,0.2148,0.2251,0.2341,0.2435,0.2569,0.2595,0.2596,0.268,0.2536,0.2478,0.2323,0.2308,0.2337,0.2282,0.2714,0.2713,0.2712,0,0.1906,0.1898,0.1934,0.1941,0.1932,0.1943,0.1935,0.199,0.1993,0.2077,0.208,0.2187,0.2232,0.2392,0.2495,0.2618,0.2534,0.2571,0.254,0.2363,0.2317,0.2228,0.2173,0.2478,0.2475,0.2473,0.2471,0,0.1794,0.181,0.1822,0.1847,0.1847,0.1839,0.1844,0.1833,0.1892,0.1913,0.1959,0.2015,0.2173,0.2242,0.2387,0.246,0.2423,0.2527,0.2407,0.2228,0.2082,0.1986,0.2319,0.2451,0.2453,0.2455,0.2456,0.2456,0.1696,0.1694,0.1728,0.1741,0.1751,0.1742,0.171,0.1723,0.1717,0.1738,0.1819,0.1857,0.1975,0.2179,0.2229,0.2221,0.2296,0.2179,0.2204,0.2149,0.2026,0.2303,0.2332,0.2333,0.2334,0.2335,0.2336,0,0.1582,0.1599,0.1616,0.165,0.1627,0.1665,0.1644,0.1604,0.1567,0.1608,0.1631,0.1671,0.1731,0.1833,0.1894,0.1865,0.1855,0.184,0.1708,0.1696,0.1996,0.1907,0.1767,0.1767,0.1767,0.1767,0.1768,0.1768,0.1531,0.1518,0.1551,0.1515,0.1526,0.148,0.1454,0.1418,0.1422,0.1382,0.1373,0.1412,0.1463,0.1519,0.1483,0.1517,0.1412,0.1413,0.1422,0.1612,0.1644,0.1674,0.158,0.1374,0.1374,0.102,0.1017,0.1015]},{"header":{"parameterUnit":"m.s-1","parameterCategory":2,"la1":30.2991,"la2":30.254,"lo1":-89.0895,"lo2":-89.0444,"dy":0.0017,"dx":0.0017,"nx":28,"ny":28,"refTime":"2024-08-09T15:00:00:Z","depth":"0","parameterNumber":3,"parameterNumberName":"V-component_of_CURRENTS"},"data":[0,0,0,0,0,0,0,0,0,0,0,0,0,0,0,0,0,0,0,0,0,0,0,0,0,0,0,0,0,0,0,0,0,0,0,0,0,0,0,0,0,0,0,0,0,0,0,0,0,0,0,0,0,0,0,0,0,0,-0.0442,-0.0442,0,-0.0437,-0.0437,-0.0437,-0.0492,-0.0494,-0.0495,-0.0497,-0.0546,-0.0546,-0.0546,0,0,0,0,0,0,0,0,0,0,0,0,0,-0.0532,-0.0529,-0.0442,-0.0442,-0.0441,-0.0437,-0.0437,-0.0437,-0.0492,-0.0494,-0.0496,-0.0497,-0.0546,-0.0546,-0.0546,0,0,0,0,0,0,0,0,0,0,0,0,0,-0.0507,-0.0529,-0.0442,-0.0468,-0.047,-0.0437,-0.0437,-0.0437,-0.0492,-0.0494,-0.0496,-0.0498,-0.0546,-0.0546,-0.0546,-0.0503,0,0,-0.0546,-0.0546,0,0,0,0,0,0,0,0,-0.0508,-0.0504,-0.0464,-0.0466,-0.0468,-0.0466,-0.0487,-0.0461,-0.0491,-0.0485,-0.0497,-0.0499,-0.0522,-0.0524,-0.0519,-0.0505,-0.0507,-0.0546,-0.0546,-0.0546,-0.0546,0,0,0,0,0,0,0,-0.051,-0.0505,-0.0441,-0.0464,-0.0466,-0.0491,-0.0489,-0.0482,-0.0493,-0.0485,-0.0489,-0.0486,-0.0524,-0.0519,-0.0521,-0.0508,-0.0546,-0.0546,-0.0546,-0.0546,-0.0442,-0.0439,0,0,0,0,0,0,-0.0504,-0.0505,-0.0441,-0.0441,-0.0493,-0.0487,-0.0486,-0.0466,-0.0492,-0.0497,-0.0484,-0.0489,-0.0518,-0.0521,-0.0523,-0.0466,-0.0546,-0.0546,-0.0546,-0.0445,-0.0441,-0.0438,0,0,0,0,0,0,-0.0505,-0.0497,-0.0441,-0.0474,-0.0468,-0.0483,-0.046,-0.0464,-0.0462,-0.0491,-0.0498,-0.0478,-0.052,-0.0523,-0.0506,-0.0469,-0.0546,-0.0546,-0.0448,-0.0444,-0.044,-0.0357,0,0,0,0,0,0,-0.0507,-0.0497,-0.0472,-0.0472,-0.0466,-0.041,-0.0458,-0.0463,-0.0456,-0.0462,-0.0487,-0.0494,-0.0522,-0.0506,-0.0506,-0.047,-0.0546,-0.0451,-0.0446,-0.0441,-0.0364,-0.0351,-0.034,0,0,0,0,0,-0.051,-0.046,-0.047,-0.0462,-0.0433,-0.0408,-0.0407,-0.0427,-0.0453,-0.0436,-0.0454,-0.0493,-0.0474,-0.0503,-0.0505,-0.0468,-0.0454,-0.0448,-0.0442,-0.0369,-0.0353,-0.034,0,0,0,0,0,0,-0.0475,-0.0461,-0.0472,-0.0418,-0.0412,-0.0418,-0.0396,-0.0415,-0.0414,-0.0422,-0.0462,-0.0467,-0.0437,-0.0454,-0.0486,-0.0419,-0.0467,-0.0461,-0.0412,-0.0397,-0.0386,-0.0367,-0.0546,0,0,0,0,0,-0.0455,-0.0423,-0.0419,-0.0376,-0.0369,-0.0382,-0.0373,-0.0387,-0.039,-0.0393,-0.041,-0.0418,-0.0407,-0.0407,-0.0401,-0.0365,-0.0373,-0.0338,-0.0326,-0.0317,-0.0298,-0.0279,-0.0265,-0.0418,-0.0418,-0.0418,0,0,-0.0432,-0.0418,-0.04,-0.0368,-0.0365,-0.0339,-0.0382,-0.0358,-0.0339,-0.0395,-0.0368,-0.0377,-0.0386,-0.0348,-0.0335,-0.0364,-0.0274,-0.0309,-0.0301,-0.0287,-0.0272,-0.0257,-0.0244,-0.0414,-0.0415,-0.0415,0,0,-0.0378,-0.0353,-0.032,-0.0304,-0.0291,-0.0294,-0.0285,-0.0284,-0.0285,-0.0258,-0.0288,-0.0268,-0.0264,-0.0255,-0.0253,-0.0165,-0.0211,-0.0168,-0.0099,-0.0081,-0.0068,-0.0058,-0.0042,-0.0031,-0.0165,-0.0165,-0.0165,0,-0.0352,-0.031,-0.0305,-0.0269,-0.0253,-0.0271,-0.0238,-0.0225,-0.0221,-0.0209,-0.0239,-0.0197,-0.0212,-0.0154,-0.013,-0.0139,-0.0144,-0.0159,-0.0067,-0.0057,-0.0048,-0.0035,-0.0023,-0.016,-0.0161,-0.0161,-0.0162,0,-0.0287,-0.025,-0.0223,-0.019,-0.0165,-0.0134,-0.0124,-0.01,-0.0109,-0.0107,-0.0057,-0.0062,-0.0044,-0.0036,-0.0062,0.001,-0.0019,-0.0057,-0.011,-0.0028,-0.0019,-0.0008,-0.0153,-0.0155,-0.0157,-0.0158,0,0,-0.0244,-0.0193,-0.0185,-0.0169,-0.0125,-0.0105,-0.0048,-0.0013,0.0013,0.0036,0.0076,0.0114,0.0102,0.0107,0.009,0.0112,0.0169,0.0057,0.0056,0.0062,0.0207,0.0192,0.0201,0.0135,0.0137,0.0139,0.0188,0,-0.0205,-0.014,-0.012,-0.0062,-0.0029,-0.0014,0.0033,0.0068,0.0086,0.0125,0.0151,0.0178,0.0159,0.016,0.0191,0.0168,0.0199,0.016,0.0137,0.0137,0.0104,0.0214,0.0241,0.0288,0.0198,0.0199,0.0201,0,-0.0154,-0.0121,-0.006,-0.0015,-0.0001,0.0032,0.0091,0.0128,0.019,0.0205,0.026,0.0261,0.0322,0.0273,0.0321,0.029,0.0268,0.0253,0.0253,0.0219,0.0142,0.0192,0.0309,0.0296,0.0216,0.0214,0.0213,0,-0.0136,-0.0081,-0.0038,-0.0017,0.004,0.0066,0.0088,0.0151,0.0183,0.0252,0.0281,0.0349,0.0368,0.0381,0.0363,0.0336,0.0396,0.0344,0.0325,0.0322,0.0335,0.033,0.043,0.0388,0.0388,0.0388,0.0388,0,-0.0094,-0.0062,-0.0036,-0.0003,0.0029,0.0067,0.0115,0.0151,0.0215,0.027,0.0312,0.037,0.0391,0.0422,0.0402,0.0411,0.0431,0.0374,0.0349,0.0366,0.0363,0.034,0.029,0.039,0.0389,0.0389,0.0389,0,-0.0075,-0.0045,-0.0007,0.0034,0.0045,0.0062,0.0112,0.0155,0.0208,0.0284,0.0308,0.039,0.0439,0.0458,0.0473,0.0453,0.0464,0.0444,0.0465,0.0443,0.0406,0.0358,0.0408,0.0492,0.0449,0.0449,0.0449,0,-0.0062,-0.003,-0.0,0.0018,0.0033,0.0063,0.0099,0.0148,0.02,0.0301,0.0346,0.0415,0.0487,0.0524,0.0513,0.0514,0.0486,0.0506,0.0469,0.0449,0.0378,0.0344,0.0411,0.0522,0.0522,0.0523,0.0523,0,-0.0042,-0.0033,-0.0016,0.0027,0.0056,0.0091,0.0139,0.0178,0.0257,0.0325,0.0427,0.0487,0.0539,0.0582,0.057,0.0552,0.0523,0.0515,0.0502,0.0469,0.0433,0.0487,0.0434,0.0529,0.0528,0.0528,0.0527,0.0527,-0.0055,-0.0046,-0.0008,0.0025,0.0069,0.0136,0.0178,0.0245,0.033,0.0462,0.0491,0.0608,0.0637,0.0644,0.0608,0.0565,0.0554,0.0541,0.0494,0.047,0.0538,0.0496,0.0548,0.0547,0.0547,0.0547,0.0546,0,-0.006,-0.0028,0.0004,0.006,0.0122,0.0143,0.023,0.0297,0.0408,0.0524,0.0624,0.0727,0.0733,0.0706,0.0636,0.057,0.059,0.0528,0.0507,0.059,0.0569,0.0559,0.0606,0.0606,0.0606,0.0606,0.0606,0.0606,-0.0049,-0.0017,0.0011,0.0109,0.0155,0.0254,0.0309,0.041,0.0511,0.0679,0.078,0.085,0.085,0.0646,0.0548,0.0527,0.0551,0.047,0.0527,0.0485,0.0483,0.0482,0.0467,0.0494,0.0493,0.0627,0.0627,0.0628]}],[{"header":{"parameterUnit":"m.s-1","parameterCategory":2,"la1":30.2991,"la2":30.254,"lo1":-89.0895,"lo2":-89.0444,"dy":0.0017,"dx":0.0017,"nx":28,"ny":28,"refTime":"2024-08-09T15:00:00:Z","depth":"2","parameterNumber":2,"parameterNumberName":"U-component_of_CURRENTS"},"data":[0,0,0,0,0,0,0,0,0,0,0,0,0,0,0,0,0,0,0,0,0,0,0,0,0,0,0,0,0,0,0,0,0,0,0,0,0,0,0,0,0,0,0,0,0,0,0,0,0,0,0,0,0,0,0,0,0,0,-0.0413,-0.0414,0,-0.0469,-0.047,-0.047,-0.0498,-0.0498,-0.0498,-0.0498,-0.0541,-0.0542,-0.0543,0,0,0,0,0,0,0,0,0,0,0,0,0,-0.037,-0.0371,-0.0413,-0.0414,-0.0415,-0.0469,-0.047,-0.047,-0.0498,-0.0498,-0.0498,-0.0498,-0.0541,-0.0542,-0.0544,0,0,0,0,0,0,0,0,0,0,0,0,0,-0.0403,-0.0371,-0.0413,-0.0436,-0.0439,-0.0469,-0.047,-0.0471,-0.0498,-0.0498,-0.0498,-0.0498,-0.0541,-0.0542,-0.0544,-0.055,0,0,-0.0549,-0.0549,0,0,0,0,0,0,0,0,-0.0401,-0.0404,-0.0432,-0.0434,-0.0438,-0.0478,-0.0471,-0.0497,-0.0498,-0.0474,-0.0498,-0.0498,-0.052,-0.0523,-0.0531,-0.0552,-0.0554,-0.0549,-0.055,-0.055,-0.0551,0,0,0,0,0,0,0,-0.0398,-0.0402,-0.0434,-0.0433,-0.0436,-0.0458,-0.0462,-0.0476,-0.0494,-0.0476,-0.0478,-0.0487,-0.0521,-0.053,-0.0533,-0.0554,-0.0549,-0.055,-0.0551,-0.0552,-0.0472,-0.0469,0,0,0,0,0,0,-0.0392,-0.0399,-0.0432,-0.0436,-0.0421,-0.0458,-0.0463,-0.0464,-0.0494,-0.0499,-0.0487,-0.0488,-0.0527,-0.0531,-0.0534,-0.0444,-0.055,-0.0552,-0.0553,-0.0475,-0.0472,-0.0468,0,0,0,0,0,0,-0.0391,-0.0394,-0.043,-0.0421,-0.0427,-0.0458,-0.0459,-0.0465,-0.0448,-0.0503,-0.0507,-0.0461,-0.0527,-0.0532,-0.0518,-0.0449,-0.0552,-0.0554,-0.0479,-0.0474,-0.047,-0.0326,0,0,0,0,0,0,-0.0389,-0.0393,-0.0369,-0.042,-0.0427,-0.0415,-0.046,-0.0466,-0.0455,-0.0456,-0.0483,-0.0489,-0.0528,-0.0515,-0.052,-0.0453,-0.0555,-0.0483,-0.0477,-0.0471,-0.0335,-0.0317,-0.0302,0,0,0,0,0,-0.0387,-0.0351,-0.0367,-0.037,-0.04,-0.0414,-0.0417,-0.0442,-0.0453,-0.0429,-0.0451,-0.0487,-0.0481,-0.0515,-0.052,-0.0453,-0.0485,-0.0478,-0.0472,-0.0342,-0.0321,-0.0303,0,0,0,0,0,0,-0.0312,-0.0352,-0.0371,-0.0346,-0.0366,-0.0418,-0.0389,-0.0418,-0.0417,-0.0404,-0.0464,-0.0471,-0.0422,-0.046,-0.0495,-0.041,-0.0482,-0.0476,-0.0381,-0.0362,-0.0346,-0.0376,-0.0556,0,0,0,0,0,-0.0288,-0.024,-0.032,-0.0267,-0.0295,-0.0337,-0.0338,-0.0355,-0.0375,-0.0374,-0.0393,-0.0403,-0.0402,-0.0401,-0.0402,-0.0371,-0.0414,-0.0325,-0.0309,-0.0295,-0.0321,-0.0292,-0.0276,-0.0446,-0.0446,-0.0446,0,0,-0.0228,-0.024,-0.0209,-0.0242,-0.026,-0.0297,-0.0335,-0.0314,-0.0321,-0.0378,-0.0352,-0.0341,-0.0378,-0.0333,-0.0314,-0.0357,-0.0267,-0.0286,-0.0274,-0.0309,-0.0283,-0.0267,-0.0253,-0.0441,-0.0442,-0.0443,0,0,-0.0126,-0.0118,-0.0093,-0.0114,-0.0141,-0.0193,-0.0186,-0.0229,-0.0225,-0.0211,-0.0237,-0.0193,-0.0204,-0.0206,-0.0218,-0.0115,-0.0174,-0.0092,-0.0046,-0.0015,-0.0002,0.0009,-0.0023,-0.0016,-0.0092,-0.0092,-0.0092,0,-0.0082,-0.0074,-0.0078,-0.0089,-0.0114,-0.0154,-0.0185,-0.0184,-0.0196,-0.0189,-0.0179,-0.0153,-0.015,-0.0131,-0.0079,-0.0078,-0.0097,-0.0117,0.0005,0.0015,0.0024,-0.0012,-0.0006,-0.0084,-0.0085,-0.0086,-0.0087,0,-0.0037,-0.0011,0.0011,-0.0035,-0.0043,-0.0051,-0.0104,-0.0078,-0.0079,-0.0091,-0.0033,-0.0019,-0.001,0.0029,0.0002,0.0079,0.0033,0.0031,-0.0049,0.0049,0.0005,0.0009,-0.0073,-0.0076,-0.0078,-0.008,0,0,-0.0063,0.001,-0.0,0.0005,-0.0034,-0.005,-0.0031,-0.0073,-0.006,-0.0013,0.0005,0.0069,0.0102,0.0092,0.0104,0.0136,0.0215,0.0119,0.0117,0.0076,0.0241,0.026,0.0264,0.0244,0.0246,0.0247,0.0185,0,-0.008,-0.0072,-0.0046,-0.0037,-0.006,-0.0059,-0.0046,-0.0036,-0.0022,0.0012,0.0055,0.0097,0.0115,0.0156,0.0198,0.0209,0.0231,0.0228,0.0157,0.0153,0.0152,0.0273,0.0187,0.013,0.0187,0.0188,0.0188,0,-0.0136,-0.0115,-0.0106,-0.0047,-0.0068,-0.0055,-0.0062,-0.0042,0.0009,0.0046,0.0104,0.013,0.0194,0.0212,0.0252,0.0252,0.0259,0.0258,0.0256,0.0215,0.0181,0.0042,0.0133,0.0193,0.0192,0.0192,0.0192,0,-0.0163,-0.0181,-0.0163,-0.0153,-0.0097,-0.0071,-0.0068,-0.0022,0.0007,0.0081,0.0123,0.0176,0.0229,0.0251,0.0283,0.0275,0.0308,0.0291,0.029,0.0287,0.0166,0.0152,0.0317,0.0317,0.0317,0.0317,0.0317,0,-0.0188,-0.0157,-0.0177,-0.0103,-0.0144,-0.0088,-0.0051,-0.0022,0.0048,0.0103,0.0155,0.0203,0.0254,0.0282,0.0285,0.0308,0.0315,0.0303,0.0295,0.0216,0.0208,0.0216,0.0205,0.0315,0.0315,0.0316,0.0316,0,-0.0114,-0.0109,-0.0086,-0.0075,-0.0089,-0.0105,-0.0047,0.0014,0.006,0.0136,0.0171,0.0236,0.0295,0.0308,0.034,0.0322,0.0327,0.0327,0.0208,0.019,0.0263,0.0261,0.0296,0.0296,0.0297,0.0298,0.0298,0,0.0011,0.0018,-0.0063,-0.0103,-0.0073,-0.009,-0.0033,0.0033,0.0109,0.0156,0.0216,0.0268,0.0326,0.0351,0.0347,0.0334,0.0359,0.0235,0.0228,0.0284,0.0272,0.0268,0.0265,0.0099,0.0098,0.0097,0.0096,0,0.0148,0.0059,-0.0012,-0.0036,-0.0026,-0.0053,0.0019,0.0063,0.0168,0.0222,0.0279,0.0299,0.034,0.0325,0.0324,0.0286,0.0236,0.0217,0.032,0.0147,0.0103,0.009,0.0092,0.0087,0.0088,0.0089,0.0089,0.0089,0.0158,0.0057,-0.0047,-0.0055,-0.0047,-0.0005,0.0021,0.0109,0.0191,0.0265,0.0279,0.0309,0.0215,0.0218,0.0226,0.0239,0.0224,0.0153,0.0154,0.0156,0.0175,0.0138,0.0126,0.0127,0.0128,0.0129,0.0129,0,0.0153,0.0056,-0.0011,-0.0076,-0.0012,0.0024,0.009,0.0126,0.0244,0.0285,0.032,0.0181,0.0151,0.0159,0.0172,0.0141,0.0111,0.0128,0.0076,0.008,0.0085,0.0102,0.0033,0.0034,0.0035,0.0036,0,0,0.0084,0.0024,0.0007,0.0026,0.0034,0.0119,0.0168,0.0206,0.0239,0.0243,0.0261,0.0154,0.0123,0.0077,0.0025,0.0093,0.0105,0.0075,0.0127,0.007,0.0078,0.0044,0.0067,0,0,0,0,0]},{"header":{"parameterUnit":"m.s-1","parameterCategory":2,"la1":30.2991,"la2":30.254,"lo1":-89.0895,"lo2":-89.0444,"dy":0.0017,"dx":0.0017,"nx":28,"ny":28,"refTime":"2024-08-09T15:00:00:Z","depth":"2","parameterNumber":3,"parameterNumberName":"V-component_of_CURRENTS"},"data":[0,0,0,0,0,0,0,0,0,0,0,0,0,0,0,0,0,0,0,0,0,0,0,0,0,0,0,0,0,0,0,0,0,0,0,0,0,0,0,0,0,0,0,0,0,0,0,0,0,0,0,0,0,0,0,0,0,0,0.0067,0.0067,0,0.0088,0.0088,0.0088,0.0128,0.0128,0.0129,0.0129,0.011,0.0109,0.0108,0,0,0,0,0,0,0,0,0,0,0,0,0,0.0084,0.0084,0.0066,0.0067,0.0067,0.0087,0.0088,0.0089,0.0128,0.0128,0.0129,0.0129,0.011,0.0109,0.0107,0,0,0,0,0,0,0,0,0,0,0,0,0,0.009,0.0084,0.0066,0.0087,0.0089,0.0087,0.0088,0.0089,0.0127,0.0128,0.0129,0.013,0.011,0.0109,0.0107,0.0082,0,0,0.0103,0.0102,0,0,0,0,0,0,0,0,0.009,0.009,0.0084,0.0085,0.0087,0.0104,0.0087,0.0084,0.0127,0.0115,0.0129,0.013,0.0102,0.0101,0.0107,0.0081,0.008,0.0103,0.0102,0.0101,0.01,0,0,0,0,0,0,0,0.009,0.0089,0.0077,0.0084,0.0086,0.0103,0.0105,0.0087,0.0105,0.0116,0.0119,0.0117,0.0103,0.0109,0.0107,0.008,0.0103,0.0101,0.01,0.01,-0.0041,-0.0043,0,0,0,0,0,0,0.008,0.0089,0.0077,0.0078,0.0088,0.0102,0.0104,0.01,0.0106,0.0107,0.0116,0.0119,0.0111,0.0109,0.0106,0.0013,0.0101,0.0099,0.0099,-0.0038,-0.0041,-0.0044,0,0,0,0,0,0,0.008,0.0078,0.0076,0.0082,0.0083,0.01,0.0095,0.01,0.0081,0.0106,0.0107,0.0091,0.0111,0.0108,0.0067,0.0015,0.0099,0.0097,-0.0035,-0.0039,-0.0043,-0.0133,0,0,0,0,0,0,0.008,0.0078,0.0048,0.0081,0.0082,0.0045,0.0094,0.0099,0.008,0.0082,0.0084,0.0085,0.0112,0.0069,0.0065,0.0015,0.0096,-0.0031,-0.0036,-0.0041,-0.0126,-0.0139,-0.0151,0,0,0,0,0,0.0081,0.0037,0.0046,0.0044,0.0048,0.0043,0.0044,0.0062,0.0077,0.0052,0.0059,0.0084,0.0032,0.0065,0.0062,0.001,-0.0028,-0.0035,-0.0041,-0.0121,-0.0137,-0.015,0,0,0,0,0,0,0.0008,0.0038,0.0049,0.0009,0.0013,0.0048,0.0018,0.0037,0.0025,0.0018,0.0053,0.0052,-0.0007,0.0007,0.0043,-0.0049,0.0003,-0.0004,-0.0056,-0.0071,-0.0084,-0.0049,0.0095,0,0,0,0,0,-0.0018,-0.0038,-0.0007,-0.005,-0.0047,-0.002,-0.0028,-0.0015,-0.001,-0.0014,-0.001,-0.0016,-0.0033,-0.0047,-0.0062,-0.0111,-0.0068,-0.015,-0.0163,-0.0173,-0.015,-0.0145,-0.0154,-0.0065,-0.0065,-0.0065,0,0,-0.0066,-0.0052,-0.0069,-0.0067,-0.006,-0.006,-0.0023,-0.0051,-0.006,-0.0019,-0.0056,-0.0067,-0.0059,-0.0109,-0.0135,-0.0104,-0.018,-0.0181,-0.019,-0.016,-0.0152,-0.016,-0.0168,-0.0069,-0.0069,-0.0068,0,0,-0.0129,-0.015,-0.016,-0.0156,-0.0151,-0.0137,-0.0152,-0.0135,-0.0141,-0.0178,-0.0152,-0.0185,-0.0217,-0.021,-0.021,-0.0304,-0.025,-0.0331,-0.0359,-0.0357,-0.0362,-0.0367,-0.0329,-0.0329,-0.0332,-0.0332,-0.0332,0,-0.0169,-0.0176,-0.0175,-0.017,-0.0164,-0.0171,-0.0167,-0.0189,-0.0196,-0.0194,-0.0209,-0.0243,-0.0255,-0.0277,-0.0313,-0.0329,-0.0303,-0.03,-0.0369,-0.0372,-0.0375,-0.0335,-0.0334,-0.0337,-0.0337,-0.0336,-0.0336,0,-0.0201,-0.022,-0.0235,-0.0216,-0.0228,-0.0242,-0.0244,-0.0276,-0.0293,-0.0289,-0.0337,-0.0358,-0.0353,-0.0397,-0.0383,-0.0422,-0.0389,-0.0387,-0.0321,-0.0389,-0.0343,-0.034,-0.0344,-0.0343,-0.0341,-0.034,0,0,-0.0186,-0.0238,-0.0227,-0.0222,-0.0241,-0.0235,-0.0287,-0.0291,-0.0285,-0.0358,-0.0345,-0.0427,-0.0424,-0.0424,-0.0433,-0.0452,-0.0474,-0.0435,-0.0432,-0.0377,-0.0441,-0.0369,-0.0358,-0.0486,-0.0486,-0.0486,-0.0401,0,-0.0177,-0.0179,-0.0206,-0.0216,-0.0209,-0.0238,-0.0259,-0.0284,-0.0313,-0.0322,-0.0379,-0.0382,-0.0439,-0.0429,-0.0473,-0.0464,-0.0471,-0.0494,-0.0398,-0.0394,-0.0307,-0.0355,-0.0359,-0.0279,-0.0398,-0.0397,-0.0397,0,-0.0136,-0.0142,-0.0143,-0.017,-0.0162,-0.0177,-0.0172,-0.0199,-0.024,-0.0255,-0.0301,-0.0325,-0.0372,-0.0405,-0.0441,-0.0454,-0.0448,-0.0455,-0.0452,-0.034,-0.0317,-0.0232,-0.0269,-0.0391,-0.0392,-0.0392,-0.0393,0,-0.0059,-0.008,-0.0077,-0.0082,-0.012,-0.0119,-0.0138,-0.0167,-0.0166,-0.0197,-0.0185,-0.0261,-0.026,-0.0315,-0.0358,-0.0388,-0.0375,-0.0405,-0.0331,-0.0324,-0.0281,-0.027,-0.0405,-0.0405,-0.0406,-0.0406,-0.0406,0,-0.0003,-0.0002,-0.0035,-0.0031,0.0001,-0.0046,-0.0026,-0.0049,-0.0068,-0.0058,-0.0132,-0.013,-0.0239,-0.0259,-0.0319,-0.0309,-0.0337,-0.0321,-0.03,-0.0315,-0.0308,-0.0368,-0.0364,-0.0403,-0.0403,-0.0404,-0.0405,0,0.006,0.003,0.0035,0.0019,0.0027,0.0051,0.0038,0.0042,0.0037,0.005,0.005,-0.0009,-0.0042,-0.0124,-0.0176,-0.021,-0.0231,-0.0209,-0.02,-0.018,-0.0189,-0.0192,-0.0119,-0.0115,-0.0113,-0.011,-0.0109,0,0.006,0.0083,0.0094,0.0121,0.011,0.0132,0.0136,0.01,0.01,0.0116,0.0125,0.0119,0.0088,0.0051,-0.0003,-0.0042,-0.0124,-0.0049,-0.0114,-0.0174,-0.0161,-0.0169,-0.0175,-0.0098,-0.0096,-0.0095,-0.0094,0,0.0085,0.0106,0.0119,0.0181,0.0195,0.0221,0.022,0.0232,0.0197,0.0229,0.0242,0.0232,0.021,0.014,0.0119,0.0085,-0.0056,-0.0014,-0.0082,-0.0164,-0.0146,-0.0137,-0.0146,-0.008,-0.0082,-0.0083,-0.0083,-0.0084,0.0101,0.0139,0.0174,0.0224,0.026,0.0294,0.0301,0.0305,0.0325,0.0348,0.0329,0.0314,0.02,0.0174,0.0142,0.0134,0.0116,0.0047,0.0038,0.0029,0.0021,0.0044,0.0146,0.0146,0.0146,0.0146,0.0146,0,0.0097,0.0147,0.0215,0.0268,0.0314,0.0319,0.0347,0.0358,0.0382,0.0386,0.041,0.0308,0.0261,0.0161,0.0179,0.0176,0.0144,0.0145,0.0055,0.0043,0.0033,0.002,0.0148,0.0148,0.0148,0.0147,0,0,0.0125,0.0152,0.0193,0.0277,0.0331,0.0361,0.0373,0.0425,0.0439,0.0431,0.0399,0.0361,0.0226,0.0194,0.0158,0.016,0.0119,0.0178,0.0179,0.0068,0.0058,-0.0018,-0.0047,0,0,0,0,0]}],[{"header":{"parameterUnit":"m.s-1","parameterCategory":2,"la1":30.2991,"la2":30.254,"lo1":-89.0895,"lo2":-89.0444,"dy":0.0017,"dx":0.0017,"nx":28,"ny":28,"refTime":"2024-08-09T15:00:00:Z","depth":"4","parameterNumber":2,"parameterNumberName":"U-component_of_CURRENTS"},"data":[0,0,0,0,0,0,0,0,0,0,0,0,0,0,0,0,0,0,0,0,0,0,0,0,0,0,0,0,0,0,0,0,0,0,0,0,0,0,0,0,0,0,0,0,0,0,0,0,0,0,0,0,0,0,0,0,0,0,-0.0576,-0.0577,0,-0.0612,-0.0613,-0.0613,-0.0625,-0.0625,-0.0625,-0.0625,-0.0696,-0.0698,-0.07,0,0,0,0,0,0,0,0,0,0,0,0,0,-0.052,-0.0521,-0.0576,-0.0577,-0.0577,-0.0612,-0.0613,-0.0613,-0.0625,-0.0625,-0.0625,-0.0625,-0.0696,-0.0698,-0.07,0,0,0,0,0,0,0,0,0,0,0,0,0,-0.0548,-0.0521,-0.0576,-0.0588,-0.059,-0.0612,-0.0613,-0.0613,-0.0626,-0.0625,-0.0625,-0.0625,-0.0695,-0.0698,-0.0701,-0.072,0,0,-0.0709,-0.0711,0,0,0,0,0,0,0,0,-0.0547,-0.055,-0.0586,-0.0588,-0.0589,-0.0615,-0.0619,-0.0651,-0.0626,-0.0611,-0.0625,-0.0625,-0.0673,-0.0678,-0.0683,-0.0723,-0.0726,-0.071,-0.0711,-0.0713,-0.0713,0,0,0,0,0,0,0,-0.0545,-0.0549,-0.0589,-0.0587,-0.0589,-0.0593,-0.0597,-0.0625,-0.0642,-0.0612,-0.0613,-0.0619,-0.0674,-0.068,-0.0685,-0.0727,-0.071,-0.0712,-0.0714,-0.0715,-0.0865,-0.0867,0,0,0,0,0,0,-0.0543,-0.0547,-0.0588,-0.0591,-0.0569,-0.0594,-0.0598,-0.0606,-0.0641,-0.0646,-0.0619,-0.062,-0.0675,-0.0681,-0.0687,-0.0813,-0.0713,-0.0715,-0.0717,-0.0863,-0.0865,-0.0868,0,0,0,0,0,0,-0.0541,-0.0546,-0.0587,-0.057,-0.0576,-0.0595,-0.0604,-0.0607,-0.0622,-0.0646,-0.0652,-0.0632,-0.0675,-0.0683,-0.0742,-0.0812,-0.0717,-0.0719,-0.086,-0.0863,-0.0867,-0.1,0,0,0,0,0,0,-0.0539,-0.0545,-0.0552,-0.057,-0.0577,-0.0607,-0.0604,-0.0608,-0.0626,-0.0627,-0.0659,-0.0665,-0.0676,-0.0738,-0.0745,-0.0814,-0.0721,-0.0857,-0.0862,-0.0866,-0.0993,-0.1008,-0.102,0,0,0,0,0,-0.0537,-0.0548,-0.0553,-0.0558,-0.0585,-0.0608,-0.0612,-0.0624,-0.0626,-0.0637,-0.0675,-0.0664,-0.077,-0.0743,-0.075,-0.0822,-0.0855,-0.086,-0.0865,-0.0987,-0.1005,-0.102,0,0,0,0,0,0,-0.0531,-0.0551,-0.0556,-0.0573,-0.0592,-0.061,-0.0621,-0.0631,-0.0666,-0.0673,-0.0694,-0.0703,-0.0777,-0.0775,-0.0744,-0.0874,-0.081,-0.0817,-0.09,-0.0917,-0.0931,-0.0896,-0.0724,0,0,0,0,0,-0.0532,-0.0545,-0.0564,-0.0581,-0.0588,-0.0607,-0.0618,-0.0629,-0.066,-0.0675,-0.0712,-0.0752,-0.0802,-0.0838,-0.0865,-0.0942,-0.0895,-0.099,-0.1004,-0.1016,-0.0992,-0.0993,-0.1004,-0.0884,-0.0884,-0.0884,0,0,-0.0535,-0.0549,-0.0556,-0.0581,-0.0594,-0.0614,-0.0613,-0.0636,-0.0668,-0.0679,-0.0748,-0.0792,-0.0826,-0.0915,-0.0949,-0.0928,-0.1029,-0.1022,-0.1033,-0.1001,-0.0999,-0.101,-0.102,-0.0888,-0.0887,-0.0887,0,0,-0.0547,-0.0559,-0.0572,-0.0589,-0.0614,-0.0626,-0.0635,-0.0671,-0.0701,-0.0774,-0.0797,-0.0881,-0.0954,-0.1007,-0.1039,-0.1138,-0.1088,-0.1159,-0.1223,-0.1227,-0.1236,-0.1243,-0.1209,-0.1212,-0.1183,-0.1184,-0.1184,0,-0.0551,-0.0573,-0.058,-0.06,-0.0624,-0.0632,-0.0661,-0.0687,-0.0748,-0.0794,-0.0808,-0.0959,-0.0997,-0.1109,-0.1159,-0.1172,-0.1142,-0.1166,-0.1244,-0.125,-0.1255,-0.1218,-0.122,-0.1191,-0.119,-0.1189,-0.1188,0,-0.0568,-0.0594,-0.0605,-0.0633,-0.0658,-0.0684,-0.072,-0.0761,-0.0811,-0.0858,-0.0983,-0.106,-0.1148,-0.12,-0.1218,-0.1304,-0.126,-0.1249,-0.12,-0.1275,-0.1231,-0.1231,-0.1201,-0.1198,-0.1196,-0.1194,0,0,-0.0564,-0.0608,-0.0616,-0.0636,-0.0683,-0.07,-0.0762,-0.0827,-0.0892,-0.0974,-0.1075,-0.1203,-0.1252,-0.1287,-0.1343,-0.1374,-0.1414,-0.1341,-0.1338,-0.1301,-0.1391,-0.1255,-0.124,-0.1421,-0.1422,-0.1422,-0.1348,0,-0.058,-0.0612,-0.0649,-0.0696,-0.0712,-0.076,-0.0826,-0.0889,-0.0975,-0.1072,-0.1158,-0.1259,-0.1282,-0.1357,-0.1396,-0.1399,-0.1416,-0.1431,-0.1325,-0.132,-0.1187,-0.1236,-0.1424,-0.1347,-0.1347,-0.1347,-0.1346,0,-0.0592,-0.0608,-0.0657,-0.073,-0.0748,-0.0806,-0.0918,-0.0989,-0.111,-0.1176,-0.1286,-0.1326,-0.1405,-0.1408,-0.1429,-0.1437,-0.1416,-0.1409,-0.1406,-0.122,-0.1182,-0.1253,-0.1344,-0.1344,-0.1344,-0.1345,-0.1345,0,-0.0565,-0.0623,-0.0663,-0.0684,-0.0764,-0.0838,-0.0917,-0.1047,-0.1126,-0.1252,-0.1298,-0.1388,-0.1427,-0.1424,-0.1404,-0.1415,-0.1391,-0.1397,-0.1249,-0.1238,-0.1323,-0.1315,-0.1388,-0.1388,-0.1388,-0.1389,-0.1389,0,-0.0569,-0.0601,-0.0665,-0.0688,-0.0764,-0.0856,-0.1,-0.1075,-0.1225,-0.1298,-0.1364,-0.1389,-0.1428,-0.1414,-0.1401,-0.1304,-0.1377,-0.1239,-0.1211,-0.1382,-0.1383,-0.1322,-0.1315,-0.1386,-0.1386,-0.1387,-0.1387,0,-0.0546,-0.0585,-0.0621,-0.0714,-0.0758,-0.0831,-0.1024,-0.1104,-0.1246,-0.1337,-0.1353,-0.1382,-0.1299,-0.131,-0.1284,-0.1267,-0.1213,-0.1164,-0.1321,-0.1305,-0.1056,-0.1058,-0.0972,-0.0966,-0.0962,-0.0958,-0.0955,0,-0.0539,-0.0555,-0.0621,-0.0647,-0.0712,-0.0843,-0.0918,-0.1094,-0.1157,-0.1296,-0.1277,-0.1252,-0.1234,-0.1056,-0.1104,-0.1033,-0.103,-0.1035,-0.1067,-0.1032,-0.1014,-0.1023,-0.103,-0.0947,-0.0946,-0.0945,-0.0944,0,-0.0509,-0.0538,-0.0552,-0.0603,-0.0676,-0.0741,-0.0866,-0.0885,-0.1052,-0.119,-0.1116,-0.1084,-0.098,-0.091,-0.0863,-0.0838,-0.1058,-0.0987,-0.0997,-0.1026,-0.1002,-0.099,-0.1003,-0.0928,-0.093,-0.0932,-0.0933,0,-0.049,-0.047,-0.049,-0.0545,-0.0601,-0.0601,-0.0683,-0.071,-0.0784,-0.0926,-0.0893,-0.0871,-0.0921,-0.0805,-0.0777,-0.0718,-0.0701,-0.0733,-0.0756,-0.0774,-0.0752,-0.0694,-0.0485,0,0,0,0,0,-0.0453,-0.0422,-0.0439,-0.0447,-0.0494,-0.0538,-0.0609,-0.068,-0.0821,-0.0709,-0.081,-0.0697,-0.0634,-0.0629,-0.0511,-0.0688,-0.0709,-0.0562,-0.0759,-0.084,-0.0858,-0.0855,0,0,0,0,0,0,-0.0419,-0.0409,-0.0398,-0.0365,-0.0367,-0.0392,-0.0423,-0.0502,-0.0436,-0.0579,-0.0481,-0.0672,-0.0541,-0.0647,-0.0496,-0.0506,-0.062,-0.0597,-0.0596,-0.0829,-0.0846,-0.0861,-0.0864,0,0,0,0,0]},{"header":{"parameterUnit":"m.s-1","parameterCategory":2,"la1":30.2991,"la2":30.254,"lo1":-89.0895,"lo2":-89.0444,"dy":0.0017,"dx":0.0017,"nx":28,"ny":28,"refTime":"2024-08-09T15:00:00:Z","depth":"4","parameterNumber":3,"parameterNumberName":"V-component_of_CURRENTS"},"data":[0,0,0,0,0,0,0,0,0,0,0,0,0,0,0,0,0,0,0,0,0,0,0,0,0,0,0,0,0,0,0,0,0,0,0,0,0,0,0,0,0,0,0,0,0,0,0,0,0,0,0,0,0,0,0,0,0,0,0.0333,0.0333,0,0.0304,0.0304,0.0303,0.0305,0.0306,0.0306,0.0307,0.0322,0.0322,0.0322,0,0,0,0,0,0,0,0,0,0,0,0,0,0.0353,0.0353,0.0333,0.0332,0.0332,0.0304,0.0304,0.0303,0.0305,0.0306,0.0307,0.0307,0.0322,0.0322,0.0322,0,0,0,0,0,0,0,0,0,0,0,0,0,0.0335,0.0353,0.0333,0.0331,0.0331,0.0304,0.0304,0.0303,0.0305,0.0306,0.0307,0.0308,0.0322,0.0322,0.0322,0.0304,0,0,0.0321,0.0321,0,0,0,0,0,0,0,0,0.0336,0.0334,0.0332,0.0331,0.0331,0.031,0.0316,0.0306,0.0305,0.0313,0.0307,0.0308,0.0323,0.0322,0.0312,0.0304,0.0305,0.0321,0.0321,0.0321,0.0321,0,0,0,0,0,0,0,0.0337,0.0335,0.032,0.0331,0.0331,0.0319,0.0318,0.0314,0.0313,0.0313,0.0313,0.0312,0.0323,0.0312,0.0313,0.0305,0.0321,0.0321,0.0321,0.0321,0.0293,0.0292,0,0,0,0,0,0,0.0345,0.0336,0.0321,0.0319,0.0337,0.0319,0.0317,0.0315,0.0312,0.0313,0.0311,0.0312,0.0312,0.0313,0.0314,0.0333,0.0321,0.0321,0.0321,0.0293,0.0293,0.0292,0,0,0,0,0,0,0.0345,0.0344,0.0322,0.0328,0.0325,0.0318,0.0315,0.0314,0.0312,0.0311,0.0312,0.0312,0.0313,0.0314,0.031,0.0332,0.0321,0.0321,0.0294,0.0293,0.0292,0.0345,0,0,0,0,0,0,0.0346,0.0344,0.0345,0.0329,0.0325,0.0308,0.0314,0.0313,0.031,0.0312,0.0312,0.0314,0.0314,0.031,0.031,0.0332,0.032,0.0295,0.0294,0.0293,0.0344,0.0346,0.0348,0,0,0,0,0,0.0347,0.034,0.0345,0.0344,0.0327,0.0307,0.0304,0.0301,0.031,0.0303,0.0304,0.0314,0.0303,0.031,0.0309,0.0332,0.0296,0.0294,0.0293,0.0343,0.0346,0.0348,0,0,0,0,0,0,0.0348,0.0339,0.0345,0.0336,0.0327,0.0309,0.03,0.0303,0.0297,0.0301,0.0306,0.0306,0.0306,0.0302,0.031,0.0314,0.0301,0.0299,0.0339,0.0341,0.0343,0.0335,0.032,0,0,0,0,0,0.0351,0.0342,0.0335,0.0327,0.0323,0.0314,0.0308,0.0306,0.0299,0.0297,0.0303,0.0302,0.0296,0.0307,0.0291,0.0302,0.0298,0.0312,0.0314,0.0316,0.0306,0.0318,0.0321,0.0287,0.0287,0.0287,0,0,0.035,0.0343,0.0339,0.0327,0.0318,0.0294,0.0312,0.0299,0.0284,0.03,0.029,0.0301,0.0293,0.0298,0.03,0.0306,0.0324,0.0314,0.0317,0.0305,0.0317,0.0321,0.0324,0.0286,0.0286,0.0287,0,0,0.0326,0.0337,0.0316,0.0305,0.0293,0.0285,0.0285,0.0277,0.028,0.0275,0.028,0.0303,0.0297,0.0306,0.0306,0.0304,0.0319,0.0309,0.0335,0.0348,0.0352,0.0355,0.0364,0.0368,0.0328,0.0328,0.0329,0,0.0324,0.0299,0.0307,0.0279,0.0266,0.028,0.0251,0.0249,0.0245,0.0251,0.0273,0.0284,0.0295,0.0303,0.0318,0.0312,0.0322,0.0338,0.0354,0.0357,0.0359,0.0368,0.0371,0.0331,0.0331,0.033,0.033,0,0.0275,0.0261,0.0247,0.0217,0.0206,0.0185,0.0184,0.0186,0.0207,0.0217,0.0239,0.027,0.0285,0.0305,0.0321,0.0348,0.035,0.0346,0.0358,0.0366,0.0374,0.0377,0.0334,0.0333,0.0333,0.0332,0,0,0.0247,0.0218,0.0213,0.0193,0.0173,0.0155,0.0139,0.0131,0.0128,0.017,0.0181,0.0222,0.0275,0.0277,0.0318,0.0357,0.0406,0.0378,0.0378,0.0404,0.0442,0.0352,0.0346,0.0421,0.0421,0.0422,0.0447,0,0.0204,0.015,0.0147,0.0095,0.0067,0.0077,0.0057,0.0059,0.0086,0.0105,0.0172,0.0194,0.0253,0.029,0.0339,0.0374,0.0412,0.0399,0.0414,0.0414,0.0347,0.0345,0.0423,0.0449,0.0449,0.045,0.045,0,0.0149,0.0122,0.0071,0.0036,0.0025,0.0004,-0.0011,-0.002,0.0013,0.0043,0.0105,0.015,0.0223,0.027,0.0355,0.0351,0.0401,0.0436,0.0437,0.0331,0.0327,0.0432,0.0454,0.0454,0.0453,0.0453,0.0453,0,0.0119,0.0067,0.0029,0.0014,-0.0021,-0.0032,-0.004,-0.0029,-0.0036,0.0022,0.0034,0.0119,0.0163,0.0243,0.0338,0.0353,0.0418,0.0434,0.0395,0.039,0.0445,0.0441,0.0481,0.0481,0.0481,0.0481,0.0481,0,0.0072,0.0038,0.0016,-0.0005,-0.0057,-0.0055,-0.0087,-0.0077,-0.0057,-0.0068,0.002,0.0023,0.0162,0.0219,0.0314,0.0354,0.0397,0.0386,0.0384,0.0466,0.0464,0.0448,0.0444,0.0482,0.0481,0.0481,0.0481,0,0.0044,0.0028,-0.0022,-0.0055,-0.0071,-0.0097,-0.0127,-0.0147,-0.0113,-0.0119,-0.0101,-0.0044,0.0002,0.0121,0.0231,0.0291,0.0357,0.0363,0.0438,0.0442,0.0329,0.0327,0.0307,0.0304,0.0301,0.0299,0.0297,0,0.0024,0.0001,-0.0053,-0.0092,-0.0106,-0.0144,-0.018,-0.0169,-0.0185,-0.0179,-0.0189,-0.0154,-0.0111,-0.0005,0.0099,0.0235,0.0257,0.0312,0.0328,0.0308,0.0309,0.0311,0.0313,0.0293,0.0293,0.0292,0.0291,0,-0.001,-0.0021,-0.0062,-0.0124,-0.0172,-0.0239,-0.0271,-0.0281,-0.0272,-0.0265,-0.0252,-0.0198,-0.0174,-0.0071,0.0031,0.0133,0.0289,0.0285,0.0291,0.0307,0.0291,0.0295,0.03,0.0282,0.0283,0.0284,0.0285,0,-0.0034,-0.007,-0.0108,-0.0162,-0.0235,-0.0292,-0.0311,-0.0329,-0.0335,-0.0299,-0.0318,-0.0255,-0.0216,-0.0132,-0.0042,0.0044,0.006,0.0134,0.0149,0.016,0.0103,0.0061,-0.0031,0,0,0,0,0,-0.0062,-0.0094,-0.0145,-0.0206,-0.0271,-0.0305,-0.0365,-0.0372,-0.0364,-0.0355,-0.0318,-0.029,-0.02,-0.0176,-0.011,-0.0119,0.0061,-0.0042,0.0152,0.0231,0.0242,0.0191,0,0,0,0,0,0,-0.009,-0.0134,-0.0145,-0.0215,-0.0258,-0.0332,-0.0369,-0.037,-0.0355,-0.0335,-0.029,-0.0266,-0.0186,-0.0223,-0.0102,-0.0088,0.0045,-0.0004,-0.0003,0.0225,0.0235,0.0243,0.0195,0,0,0,0,0]}]]